DW7346 Weather Reports


Display with metric or nautical units.
time (UTC)temp
F
wind
direction
speed
MPH
gust
MPH
rain 1hr
in
rain 24hr
in
rain mn
in
humidity
%
barometer
mb
20260503200037 81 224 4.0 9.0 0.00 0.00 0.00 37 1015.7
20260503194535 80 252 3.0 9.0 0.00 0.00 0.00 39 1016.0
20260503193038 80 170 4.0 11.0 0.00 0.00 0.00 42 1016.2
20260503191535 80 253 3.0 9.0 0.00 0.00 0.00 44 1016.5
20260503190027 79 211 4.0 11.0 0.00 0.00 0.00 43 1016.6
20260503184527 79 217 5.0 11.0 0.00 0.00 0.00 44 1016.9
20260503183033 79 279 4.0 11.0 0.00 0.00 0.00 44 1017.1
20260503181528 78 217 5.0 13.0 0.00 0.00 0.00 45 1017.4
20260503180020 78 205 4.0 12.0 0.00 0.00 0.00 47 1017.7
20260503174519 78 269 2.0 10.0 0.00 0.00 0.00 50 1018.0
20260503173036 77 179 4.0 12.0 0.00 0.00 0.00 51 1018.2
20260503171513 77 212 3.0 9.0 0.00 0.00 0.00 53 1018.4
20260503081602 59 214 0.0 1.0 0.00 0.00 0.00 74 1017.6
20260503071604 62 214 1.0 3.0 0.00 0.00 0.00 69 1017.9
20260503070103 62 214 0.0 4.0 0.00 0.00 0.00 69 1018.2
20260503060111 60 214 0.0 0.0 0.00 0.00 0.00 72 1017.9
20260503054547 60 214 0.0 0.0 0.00 0.00 0.00 72 1017.8
20260503053047 60 214 0.0 0.0 0.00 0.00 0.00 72 1017.8
20260503051547 60 214 0.0 0.0 0.00 0.00 0.00 73 1017.7
20260503050042 60 214 0.0 0.0 0.00 0.00 0.00 74 1017.6
20260503044609 60 214 0.0 0.0 0.00 0.00 0.00 75 1017.6
20260503043041 60 214 0.0 0.0 0.00 0.00 0.00 76 1017.6
20260503041541 60 214 0.0 0.0 0.00 0.00 0.00 76 1017.6
20260503040039 60 214 0.0 0.0 0.00 0.00 0.00 75 1017.6
20260503034539 60 214 0.0 0.0 0.00 0.00 0.00 72 1017.6
20260503033040 61 214 0.0 0.0 0.00 0.00 0.00 72 1017.6
20260503031540 62 214 0.0 0.0 0.00 0.00 0.00 70 1017.4
20260503030041 63 214 0.0 0.0 0.00 0.00 0.00 67 1017.3
20260503024537 64 214 0.0 0.0 0.00 0.00 0.00 66 1017.2
20260503023041 65 214 0.0 0.0 0.00 0.00 0.00 63 1017.1
20260503021536 66 214 0.0 0.0 0.00 0.00 0.00 61 1017.0
20260503020037 67 214 0.0 0.0 0.00 0.00 0.00 59 1016.8
20260503014543 68 214 0.0 0.0 0.00 0.00 0.00 56 1016.8
20260503013035 70 214 0.0 0.0 0.00 0.00 0.00 54 1016.7
20260503011534 71 214 0.0 0.0 0.00 0.00 0.00 53 1016.6
20260503010034 72 214 0.0 0.0 0.00 0.00 0.00 52 1016.5
20260503004534 73 214 0.0 4.0 0.00 0.00 0.00 49 1016.6
20260503003040 74 224 0.0 3.0 0.00 0.00 0.00 48 1016.5
20260503001532 75 229 0.0 3.0 0.00 0.00 0.00 46 1016.5
20260503000039 75 228 2.0 7.0 0.00 0.00 0.00 46 1016.5
20260502234547 76 223 2.0 8.0 0.00 0.00 0.00 47 1016.5
20260502233027 76 221 3.0 7.0 0.00 0.00 0.00 46 1016.7
20260502231531 76 295 2.0 5.0 0.00 0.00 0.00 46 1016.7
20260502230028 76 223 1.0 5.0 0.00 0.00 0.00 47 1016.8
20260502224526 75 194 2.0 5.0 0.00 0.00 0.00 45 1016.8
20260502223035 76 239 2.0 5.0 0.00 0.00 0.00 44 1016.9
20260502221521 76 359 0.0 4.0 0.00 0.00 0.00 46 1017.0
20260502220020 75 268 0.0 3.0 0.00 0.00 0.00 44 1017.1
20260502214520 77 285 0.0 5.0 0.00 0.00 0.00 43 1017.2
20260502213018 76 202 0.0 5.0 0.00 0.00 0.00 44 1017.3
20260502211518 76 112 2.0 7.0 0.00 0.00 0.00 43 1017.5
20260502210015 76 183 2.0 6.0 0.00 0.00 0.00 42 1017.8
20260502204515 76 269 2.0 8.0 0.00 0.00 0.00 40 1018.1
20260502203012 76 34 1.0 6.0 0.00 0.00 0.00 48 1018.2
20260502201511 75 333 2.0 5.0 0.00 0.00 0.00 46 1018.4